Wind_Speed
13 13 13 13 13 13 13 14 14 14 14 14 15 15 16 16 16 16 16 16 16 17 17 17 17 17 17 17 18 18 18 18 18 18 18 18 18 19 19 20 20 20 20
15 15 15 15 15 15 15 15 15 15 15 15 15 15 16 16 16 17 17 17 17 17 17 17 17 17 17 17 18 18 18 19 18 18 19 19 19 20 20 21 21 21 21
16 16 16 16 16 16 16 16 16 17 17 16 16 16 16 17 17 17 17 17 18 18 17 17 17 17 17 18 19 19 19 19 19 19 19 19 20 21 21 21 21 22 22
17 17 17 17 17 17 17 17 17 17 17 17 17 17 17 17 17 17 17 17 17 17 17 17 17 18 18 19 19 19 19 20 20 20 21 20 20 20 21 21 21 22 22
17 17 17 17 17 17 18 18 18 18 18 18 18 18 17 17 17 17 17 17 18 18 18 18 18 19 19 19 19 19 19 20 20 21 21 21 21 21 21 22 22 22 22
17 17 17 17 17 17 18 18 18 18 18 18 18 18 18 18 18 17 17 17 18 18 18 18 18 18 19 19 20 20 20 21 22 22 22 22 22 21 21 22 22 22 22
18 18 18 18 18 19 19 19 19 19 19 18 18 18 18 18 18 18 18 18 18 19 19 19 19 19 20 20 20 21 21 22 23 22 21 21 22 22 22 22 22 23 23
20 20 19 19 20 20 20 20 20 20 19 19 19 19 19 18 19 19 19 20 20 20 19 19 20 20 20 20 20 21 22 22 22 22 22 23 23 23 23 23 24 24 24
21 21 21 21 20 21 21 21 21 20 20 20 20 20 20 20 20 20 21 21 20 20 20 20 20 20 21 21 21 21 22 22 23 23 23 24 24 24 24 24 24 25 25
22 22 22 21 21 21 21 21 21 21 21 21 21 21 21 21 21 21 22 22 21 21 21 21 22 22 22 23 23 23 23 23 24 24 24 25 25 25 26 25 26 27 27
23 23 23 23 22 22 22 21 22 22 22 22 22 22 22 22 23 23 24 23 23 23 23 23 23 24 25 25 25 24 24 25 25 25 25 25 26 26 27 27 28 28 29
25 25 24 24 24 23 23 23 23 23 23 24 23 24 24 24 25 25 25 25 25 25 25 25 25 26 26 26 27 27 26 26 26 26 26 26 26 26 27 27 29 30 30
26 26 26 26 26 25 25 25 25 25 25 26 26 26 26 27 27 28 28 27 27 27 27 27 27 27 28 28 28 28 28 27 27 27 26 27 27 28 29 29 29 30 30
28 27 27 28 27 27 27 27 27 27 27 27 28 28 29 29 29 29 29 29 29 29 29 29 29 29 29 29 29 29 29 28 28 28 27 27 28 29 29 30 31 31 31
31 30 30 29 29 29 29 29 29 29 29 29 29 29 30 30 30 30 30 30 30 30 30 31 30 30 30 30 30 30 30 30 29 29 28 29 29 29 30 31 31 32 33
32 32 32 32 32 32 31 31 31 31 31 31 31 31 32 31 31 31 31 31 32 32 31 31 31 31 32 32 32 31 31 31 31 31 31 31 31 31 31 31 32 32 33
33 33 34 33 33 34 34 33 33 33 33 33 33 33 33 33 32 32 32 32 33 33 33 33 33 33 33 33 33 32 32 32 32 32 32 33 33 33 33 33 33 33 33
34 34 34 34 33 33 34 34 34 34 34 34 34 34 34 34 34 33 33 33 33 34 34 34 33 34 34 34 34 34 33 33 33 33 33 34 35 35 35 35 36 36 35
34 34 34 34 34 33 34 34 34 34 34 34 34 34 35 35 35 34 34 34 34 34 34 34 34 34 34 34 34 34 34 34 34 35 35 36 36 36 36 36 36 37 37
35 34 34 34 33 33 34 34 33 33 33 33 33 34 34 34 34 34 35 35 35 35 35 34 34 35 34 34 34 35 35 35 35 36 36 37 37 37 37 37 37 37 37
35 35 34 34 34 34 34 33 33 33 33 33 33 34 34 34 34 34 34 35 35 35 35 34 34 35 35 36 36 36 37 37 37 37 38 38 38 38 37 37 37 38 38
35 35 35 34 34 34 34 33 33 33 33 34 34 35 35 35 35 34 34 34 34 34 34 34 35 35 36 36 37 37 37 37 37 37 37 37 37 37 37 37 38 38 39
34 34 34 34 34 34 33 34 34 34 34 34 35 35 35 35 34 34 34 34 34 34 34 34 35 35 36 36 36 36 36 36 36 36 36 36 36 36 37 38 38 39 39
34 34 34 35 35 34 34 34 34 35 35 35 35 35 35 34 33 33 33 34 34 34 35 35 35 35 35 35 35 35 35 35 36 36 36 36 36 36 37 38 39 39 40
33 33 34 35 35 35 34 34 34 34 35 35 35 35 35 34 34 34 34 34 34 34 34 34 34 35 35 35 35 35 35 35 35 35 36 36 37 37 38 38 39 39 40
33 34 34 34 34 34 34 34 34 34 35 34 35 35 34 34 34 34 34 34 34 34 34 34 34 35 35 35 35 35 36 36 36 36 36 37 38 38 38 38 39 39 40
Wind_Direction
287 287 286 285 285 286 287 289 289 289 286 282 279 279 280 281 282 283 283 284 285 284 281 279 279 278 275 273 272 271 271 272 270 269 267 267 270 270 268 267 268 270 272
285 285 284 284 285 285 285 285 284 284 283 283 282 282 283 283 281 280 281 283 284 282 281 281 280 278 276 275 274 273 273 273 273 270 269 269 270 272 272 270 268 268 270
285 284 284 284 283 284 284 285 284 282 282 281 282 282 283 284 282 280 279 281 282 282 281 280 279 278 276 277 276 275 273 273 274 272 272 271 271 272 272 271 269 268 270
285 284 284 283 282 283 283 283 283 281 281 282 282 281 281 282 283 282 278 281 283 283 281 281 280 279 277 277 277 276 274 274 275 275 274 273 271 272 273 271 270 270 271
285 284 284 284 283 283 283 282 282 283 284 285 284 282 280 280 281 281 281 280 281 282 281 282 282 281 280 279 277 276 274 275 275 276 275 273 272 272 273 273 271 271 273
284 283 283 283 284 284 283 281 281 283 284 284 283 282 280 279 281 281 280 281 282 283 283 283 284 283 282 280 277 276 275 275 276 276 275 273 273 273 272 273 273 274 275
284 283 282 282 282 283 283 282 282 281 281 281 281 281 281 279 279 278 279 280 281 282 281 282 283 284 281 280 279 277 276 277 276 276 275 274 274 273 272 272 273 275 276
283 282 281 281 282 282 283 284 282 281 280 278 278 279 280 279 278 279 280 280 281 281 281 281 281 282 282 281 280 281 279 277 277 277 275 274 274 275 273 273 274 275 275
283 281 280 281 282 282 282 282 281 279 278 277 277 277 277 278 278 279 280 281 281 281 281 281 281 281 281 281 281 282 283 281 279 279 276 274 273 272 270 271 272 274 275
281 281 281 281 281 281 281 280 279 278 277 276 276 276 277 278 278 279 279 280 280 280 281 281 281 281 281 281 282 282 284 283 282 280 278 275 273 273 272 271 272 274 276
278 278 279 280 280 280 279 279 278 277 276 275 275 275 275 276 277 278 278 278 279 279 280 281 281 280 280 280 281 281 283 284 283 282 280 279 277 275 274 274 273 275 277
277 278 278 279 279 279 279 278 277 276 276 275 275 275 276 275 276 278 277 277 278 280 280 280 280 280 280 280 280 281 283 283 282 281 280 279 278 276 275 276 275 276 278
277 277 278 278 278 278 277 277 277 276 276 275 275 276 276 276 277 277 278 277 277 280 281 281 280 280 281 281 282 282 282 282 281 282 281 279 277 276 275 275 277 278 280
277 277 277 278 278 278 277 277 277 277 276 276 276 276 277 276 276 277 277 278 278 280 281 281 280 281 280 280 280 281 281 281 281 281 281 281 279 278 278 277 279 280 280
276 277 277 277 277 277 277 277 277 278 278 276 276 277 277 277 276 277 278 278 278 279 281 282 281 281 280 280 280 279 279 279 279 279 280 280 281 281 280 280 280 280 281
277 277 277 277 277 276 277 277 277 277 277 277 278 278 278 278 278 279 278 278 278 278 279 281 281 280 280 280 279 279 279 279 278 278 279 280 280 281 281 281 281 281 282
278 277 277 277 277 277 276 276 276 277 278 278 278 278 278 278 278 278 277 277 277 277 278 279 279 279 279 280 279 279 279 279 279 278 278 280 281 282 282 281 281 282 283
278 277 277 277 276 277 277 277 277 277 277 278 277 277 277 277 278 277 277 277 277 277 278 278 279 279 279 279 279 279 279 278 278 278 278 279 281 282 282 282 282 282 281
277 277 277 277 276 276 276 277 278 277 277 277 277 277 278 278 279 278 278 278 278 279 278 278 278 279 279 280 279 278 279 278 278 278 278 279 281 282 282 282 282 283 282
275 275 275 275 275 276 276 277 277 277 277 276 277 277 278 278 278 278 279 279 279 280 279 278 278 278 278 279 279 279 278 278 278 278 278 279 280 281 282 282 283 283 283
274 274 274 273 274 276 276 276 276 276 276 277 278 278 278 278 278 279 279 279 280 281 280 278 278 278 279 280 280 280 280 279 279 279 279 280 281 281 282 283 283 283 283
274 274 273 273 273 274 275 276 275 275 276 277 278 279 279 280 279 278 278 279 279 280 279 279 280 280 279 281 282 280 281 282 281 281 282 282 282 282 283 284 283 284 284
275 274 274 274 274 275 275 275 275 275 276 277 278 280 280 280 280 279 278 278 279 281 280 279 280 281 281 281 283 282 282 282 282 282 282 282 281 281 282 283 284 284 285
274 274 274 275 275 275 275 275 276 277 277 277 278 279 280 280 280 279 278 278 279 280 281 280 280 280 282 283 283 283 283 283 282 282 282 282 281 281 282 283 284 285 286
272 274 275 275 275 275 275 276 277 278 278 278 278 278 278 278 278 278 278 278 280 281 281 281 282 281 281 282 284 284 283 284 283 284 284 283 282 283 283 284 285 285 286
272 273 274 274 274 274 275 276 278 279 279 278 278 278 278 278 277 277 277 279 280 281 281 281 282 282 281 283 283 283 283 283 284 285 285 284 284 283 283 284 285 286 287
Height
5812 5811 5810 5809 5808 5807 5806 5805 5804 5803 5802 5801 5801 5800 5799 5799 5798 5798 5797 5796 5796 5795 5794 5793 5793 5792 5792 5791 5791 5791 5791 5791 5792 5792 5792 5793 5793 5794 5794 5794 5794 5794 5795
5808 5807 5806 5805 5804 5803 5802 5801 5800 5799 5798 5797 5796 5795 5795 5794 5793 5792 5792 5791 5791 5790 5789 5788 5787 5787 5786 5786 5786 5786 5786 5786 5786 5787 5787 5788 5788 5788 5788 5788 5789 5789 5789
5803 5802 5801 5800 5799 5798 5797 5796 5795 5794 5793 5792 5791 5790 5790 5789 5788 5787 5787 5786 5786 5785 5784 5783 5783 5782 5781 5781 5781 5781 5781 5781 5781 5781 5782 5782 5782 5782 5782 5782 5782 5783 5783
5798 5797 5796 5795 5794 5793 5792 5791 5790 5789 5788 5787 5786 5785 5784 5784 5783 5782 5782 5782 5781 5780 5779 5778 5778 5777 5777 5776 5776 5776 5776 5775 5775 5776 5775 5776 5776 5776 5776 5776 5776 5777 5777
5793 5792 5791 5790 5789 5788 5787 5786 5785 5784 5783 5782 5780 5780 5779 5779 5778 5777 5777 5776 5776 5775 5774 5773 5773 5772 5771 5770 5770 5770 5770 5770 5770 5770 5769 5769 5769 5769 5770 5770 5770 5770 5770
5788 5787 5786 5785 5784 5783 5781 5781 5780 5779 5777 5776 5775 5774 5774 5773 5773 5772 5772 5772 5771 5770 5769 5768 5767 5766 5766 5765 5765 5764 5764 5764 5763 5763 5763 5763 5763 5763 5763 5763 5764 5764 5764
5783 5782 5780 5779 5778 5777 5776 5775 5774 5773 5772 5771 5770 5769 5769 5768 5768 5767 5767 5766 5766 5765 5764 5763 5763 5762 5761 5760 5759 5758 5758 5757 5757 5757 5756 5756 5756 5756 5756 5757 5757 5757 5757
5777 5776 5775 5774 5773 5772 5771 5769 5768 5767 5766 5765 5765 5764 5763 5763 5762 5762 5761 5761 5760 5759 5759 5758 5757 5756 5755 5754 5753 5752 5751 5751 5750 5750 5750 5749 5749 5749 5749 5750 5750 5750 5749
5771 5770 5769 5768 5767 5766 5765 5763 5762 5761 5761 5760 5759 5758 5758 5757 5757 5756 5756 5755 5754 5754 5753 5752 5751 5751 5750 5748 5747 5747 5745 5744 5744 5743 5743 5743 5742 5742 5742 5742 5742 5742 5742
5765 5764 5763 5762 5761 5760 5758 5757 5756 5755 5755 5754 5754 5753 5752 5752 5751 5750 5750 5749 5748 5748 5747 5746 5745 5744 5743 5742 5741 5740 5740 5738 5737 5736 5736 5735 5735 5734 5734 5734 5734 5734 5734
5758 5757 5756 5755 5754 5753 5752 5751 5750 5749 5749 5748 5747 5747 5746 5745 5745 5744 5743 5742 5742 5741 5740 5739 5738 5737 5736 5735 5734 5734 5733 5731 5730 5729 5728 5727 5727 5727 5726 5726 5726 5725 5725
5751 5750 5749 5748 5747 5746 5745 5744 5743 5743 5742 5741 5741 5740 5739 5738 5737 5737 5736 5735 5734 5734 5733 5732 5731 5730 5729 5728 5727 5726 5725 5723 5722 5721 5721 5720 5719 5719 5718 5717 5717 5716 5715
5743 5742 5741 5740 5739 5738 5738 5737 5736 5735 5734 5734 5733 5732 5732 5731 5730 5729 5728 5727 5726 5726 5725 5724 5723 5722 5721 5720 5719 5718 5716 5715 5714 5713 5713 5712 5711 5710 5709 5709 5707 5706 5705
5735 5734 5733 5732 5731 5730 5729 5729 5728 5727 5726 5725 5725 5724 5723 5722 5722 5720 5719 5718 5718 5717 5716 5715 5714 5713 5712 5711 5710 5709 5708 5706 5706 5705 5704 5703 5702 5701 5700 5700 5699 5697 5696
5726 5725 5724 5723 5722 5721 5721 5720 5719 5718 5717 5716 5716 5715 5714 5713 5712 5711 5710 5710 5709 5708 5707 5706 5705 5704 5703 5702 5701 5700 5698 5697 5697 5696 5695 5694 5693 5692 5691 5690 5689 5688 5687
5716 5715 5714 5713 5713 5712 5711 5710 5709 5708 5707 5706 5706 5705 5704 5703 5703 5702 5701 5700 5699 5698 5697 5696 5695 5694 5693 5692 5691 5690 5689 5688 5687 5686 5686 5685 5684 5683 5682 5680 5679 5678 5676
5706 5705 5704 5703 5702 5701 5701 5700 5699 5698 5697 5696 5695 5694 5693 5693 5692 5691 5690 5689 5688 5687 5686 5686 5685 5684 5682 5682 5681 5680 5679 5678 5677 5676 5675 5675 5674 5673 5671 5670 5668 5667 5666
5695 5694 5693 5692 5691 5690 5689 5688 5688 5687 5687 5685 5684 5683 5683 5682 5681 5680 5679 5678 5678 5677 5676 5675 5674 5673 5672 5671 5670 5669 5668 5667 5666 5665 5665 5664 5663 5662 5660 5659 5658 5656 5655
5684 5683 5682 5681 5680 5679 5678 5677 5676 5676 5675 5674 5674 5673 5671 5671 5670 5669 5668 5667 5666 5665 5664 5664 5663 5662 5661 5660 5659 5658 5657 5656 5655 5654 5654 5653 5651 5650 5649 5647 5646 5644 5643
5673 5672 5671 5670 5669 5668 5667 5666 5665 5665 5664 5663 5663 5662 5660 5659 5658 5657 5656 5655 5654 5653 5652 5652 5651 5650 5649 5648 5647 5646 5645 5644 5643 5642 5642 5641 5639 5638 5637 5635 5634 5632 5631
5662 5661 5660 5659 5658 5657 5656 5656 5655 5654 5653 5653 5652 5651 5649 5648 5647 5646 5645 5644 5643 5642 5641 5640 5639 5639 5637 5636 5635 5634 5633 5632 5631 5630 5629 5628 5627 5626 5624 5623 5622 5620 5619
5650 5649 5648 5648 5647 5646 5645 5645 5644 5643 5642 5642 5641 5640 5638 5637 5636 5635 5634 5633 5632 5630 5629 5629 5628 5627 5626 5625 5623 5622 5621 5619 5619 5618 5617 5615 5614 5613 5612 5611 5609 5608 5606
5639 5638 5637 5636 5636 5635 5634 5633 5633 5632 5632 5631 5629 5628 5627 5626 5624 5623 5622 5621 5620 5619 5618 5617 5616 5615 5614 5613 5611 5610 5609 5608 5607 5606 5605 5603 5602 5601 5600 5598 5597 5595 5593
5627 5627 5626 5625 5624 5624 5623 5623 5622 5621 5620 5619 5618 5617 5616 5614 5613 5612 5611 5610 5609 5608 5607 5606 5605 5604 5603 5601 5600 5599 5598 5596 5595 5594 5592 5591 5590 5589 5587 5586 5584 5582 5580
5616 5615 5615 5614 5613 5613 5612 5612 5611 5610 5609 5608 5607 5605 5604 5603 5602 5601 5600 5599 5598 5597 5596 5595 5593 5592 5591 5590 5588 5587 5586 5584 5583 5582 5580 5579 5578 5576 5575 5573 5571 5569 5567
5604 5604 5603 5603 5602 5601 5601 5600 5599 5598 5597 5596 5595 5594 5592 5591 5590 5590 5589 5588 5587 5586 5585 5584 5582 5581 5580 5578 5577 5576 5574 5573 5571 5570 5568 5567 5565 5564 5562 5560 5558 5556 5554